Johnstown, PA

2:50 PM EDT on July 20, 2017 (GMT -0400)
Johnstown-Cambria County

Weather History for KJST - October, 2014

Change the Weather History Date:

Saturday, October 18, 2014

  Actual Average Record
Temperature  
Mean Temperature 50 °F 49 °F  
Max Temperature 59 °F 58 °F 88 °F (1938)
Min Temperature 40 °F 41 °F 25 °F (1982)
Degree Days  
Heating Degree Days 15 16  
Month to date heating degree days 189 246  
Since 1 July heating degree days 422 464  
Cooling Degree Days 0 0  
Month to date cooling degree days 0 0  
Year to date cooling degree days 341 382  
Moisture  
Dew Point 42 °F    
Average Humidity 79    
Maximum Humidity 96    
Minimum Humidity 62    
Precipitation  
Precipitation 0.11 in 0.09 in 1.53 in (1927)
Month to date precipitation 2.33 1.84  
Year to date precipitation 29.43 26.13  
Sea Level Pressure  
Sea Level Pressure 29.76 in    
Wind  
Wind Speed 16 mph (WNW)    
Max Wind Speed 23 mph    
Max Gust Speed 31 mph    
Visibility 8 miles    
Events Rain    
T = Trace of Precipitation, MM = Missing Value Source: NWS Daily Summary

Daily Weather History Graph

Daily Weather History Graph

Search for Another Location

Airport or City:

Trip Planner

Search our weather history database for the weather conditions in past years. The results will help you decide how hot, cold, wet, or windy it might be!

Date:

Astronomy

Oct. 18, 2014 Rise Set
Actual Time 7:29 AM EDT 6:30 PM EDT
Civil Twilight 7:01 AM EDT 6:58 PM EDT
Nautical Twilight 6:30 AM EDT 7:30 PM EDT
Astronomical Twilight 5:58 AM EDT 8:01 PM EDT
Moon 2:25 AM EDT (10/18) 3:50 PM EDT (10/18)
Length of Visible Light 11h 56m
Length of Day
11h 01m
Waning Crescent, 24% of the Moon is Illuminated
Oct 18
Waning Crescent
Oct 23
New
Oct 30
First Quarter
Nov 6
Full
Nov 14
Last Quarter

Hourly Weather History & Observations

Time (EDT) Temp. Windchill Dew Point Humidity Pressure Visibility Wind Dir Wind Speed Gust Speed Precip Events Conditions
12:54 AM 57.9 °F - 48.9 °F 72% 29.65 in 10.0 mi West 6.9 mph - 0.00 in   Overcast
1:54 AM 57.9 °F - 45.0 °F 62% 29.63 in 10.0 mi West 13.8 mph 24.2 mph N/A   Overcast
2:54 AM 55.9 °F - 45.0 °F 67% 29.63 in 10.0 mi West 12.7 mph 21.9 mph 0.00 in   Overcast
3:54 AM 55.0 °F - 44.1 °F 67% 29.62 in 10.0 mi West 21.9 mph 31.1 mph 0.00 in   Overcast
4:32 AM 54.0 °F - 44.1 °F 69% 29.65 in 10.0 mi West 13.8 mph 21.9 mph N/A   Overcast
4:54 AM 53.1 °F - 43.0 °F 69% 29.64 in 10.0 mi West 18.4 mph 27.6 mph 0.00 in   Overcast
5:35 AM 52.0 °F - 43.0 °F 71% 29.66 in 10.0 mi West 15.0 mph 24.2 mph N/A   Overcast
5:42 AM 52.0 °F - 43.0 °F 71% 29.66 in 10.0 mi West 18.4 mph 25.3 mph N/A   Overcast
5:54 AM 51.1 °F - 43.0 °F 74% 29.65 in 10.0 mi West 18.4 mph 24.2 mph 0.00 in Rain Light Rain
6:08 AM 51.1 °F - 43.0 °F 74% 29.67 in 10.0 mi West 19.6 mph 27.6 mph 0.00 in Rain Light Rain
6:54 AM 50.0 °F - 43.0 °F 77% 29.67 in 10.0 mi West 13.8 mph 24.2 mph 0.00 in   Overcast
7:54 AM 50.0 °F - 43.0 °F 77% 29.68 in 10.0 mi West 12.7 mph - N/A   Overcast
8:22 AM 48.9 °F - 44.1 °F 83% 29.69 in 9.0 mi West 16.1 mph 20.7 mph 0.00 in Rain Light Rain
8:44 AM 48.0 °F - 45.0 °F 89% 29.69 in 7.0 mi West 11.5 mph 24.2 mph 0.01 in Rain Light Rain
8:54 AM 48.0 °F - 45.0 °F 89% 29.69 in 5.0 mi West 13.8 mph 19.6 mph 0.01 in Rain Light Rain
9:01 AM 48.0 °F - 45.0 °F 89% 29.70 in 7.0 mi West 12.7 mph - 0.00 in Rain Light Rain
9:08 AM 48.0 °F - 45.0 °F 89% 29.70 in 4.0 mi West 12.7 mph - 0.01 in Rain Light Rain
9:54 AM 48.0 °F - 44.1 °F 86% 29.71 in 10.0 mi West 18.4 mph 25.3 mph 0.02 in Rain Light Rain
10:03 AM 48.0 °F - 43.0 °F 83% 29.71 in 10.0 mi West 12.7 mph 23.0 mph 0.00 in   Overcast
10:29 AM 46.9 °F - 43.0 °F 86% 29.72 in 7.0 mi West 13.8 mph 20.7 mph 0.00 in Rain Light Rain
10:48 AM 46.4 °F 40.7 °F 42.8 °F 87% 29.73 in 8.0 mi WNW 12.7 mph - 0.00 in Rain Light Rain
10:54 AM 46.0 °F 39.9 °F 43.0 °F 89% 29.73 in 8.0 mi WNW 13.8 mph - 0.00 in Rain Light Rain
11:22 AM 46.0 °F 39.9 °F 42.1 °F 86% 29.74 in 10.0 mi WNW 13.8 mph - 0.01 in   Overcast
11:54 AM 46.0 °F 39.9 °F 41.0 °F 83% 29.75 in 10.0 mi West 13.8 mph 20.7 mph 0.01 in   Overcast
12:01 PM 46.0 °F 40.2 °F 41.0 °F 83% 29.74 in 10.0 mi West 12.7 mph 21.9 mph N/A   Overcast
12:20 PM 43.0 °F 34.5 °F 39.9 °F 89% 29.75 in 6.0 mi WNW 19.6 mph 26.5 mph 0.00 in Rain Light Rain
12:54 PM 43.0 °F 36.4 °F 39.9 °F 89% 29.77 in 4.0 mi West 12.7 mph - 0.01 in Rain Light Rain
1:22 PM 43.0 °F 36.4 °F 39.9 °F 89% 29.77 in 2.5 mi WNW 12.7 mph 23.0 mph 0.00 in Rain Light Rain
1:34 PM 43.0 °F 36.0 °F 39.9 °F 89% 29.77 in 4.0 mi WNW 13.8 mph 23.0 mph 0.01 in Rain Light Rain
1:54 PM 43.0 °F 37.7 °F 41.0 °F 93% 29.78 in 10.0 mi West 9.2 mph - 0.01 in Rain Light Rain
2:21 PM 44.1 °F 39.0 °F 39.9 °F 85% 29.77 in 10.0 mi West 9.2 mph 21.9 mph 0.00 in Rain Light Rain
2:54 PM 45.0 °F 38.2 °F 41.0 °F 86% 29.78 in 10.0 mi West 15.0 mph 20.7 mph 0.00 in Rain Light Rain
3:05 PM 44.1 °F 37.1 °F 39.9 °F 85% 29.78 in 10.0 mi West 15.0 mph 24.2 mph 0.00 in Rain Light Rain
3:25 PM 44.1 °F 37.1 °F 41.0 °F 89% 29.78 in 10.0 mi West 15.0 mph 21.9 mph 0.01 in Rain Light Rain
4:17 PM 43.0 °F 36.4 °F 39.0 °F 86% 29.79 in 10.0 mi WNW 12.7 mph 28.8 mph 0.02 in Rain Light Rain
4:54 PM 44.1 °F 36.8 °F 39.0 °F 82% 29.81 in 10.0 mi WNW 16.1 mph 24.2 mph 0.02 in   Overcast
5:54 PM 44.1 °F 36.5 °F 37.9 °F 79% 29.84 in 10.0 mi West 17.3 mph 21.9 mph N/A   Overcast
6:54 PM 44.1 °F 37.1 °F 37.9 °F 79% 29.86 in 10.0 mi West 15.0 mph - 0.00 in   Overcast
7:54 PM 43.0 °F 35.1 °F 37.0 °F 80% 29.88 in 10.0 mi WNW 17.3 mph 25.3 mph N/A   Overcast
8:11 PM 43.0 °F 35.1 °F 37.9 °F 82% 29.86 in 10.0 mi West 17.3 mph 24.2 mph N/A   Overcast
8:54 PM 43.0 °F 34.2 °F 37.0 °F 80% 29.89 in 10.0 mi WNW 20.7 mph 27.6 mph N/A   Overcast
9:54 PM 42.1 °F 34.9 °F 39.0 °F 89% 29.91 in 4.0 mi NW 13.8 mph - 0.00 in Rain Light Rain
10:27 PM 41.0 °F 33.1 °F 39.0 °F 93% 29.88 in 3.0 mi WNW 15.0 mph - 0.00 in Rain Light Rain
10:36 PM 41.0 °F 32.8 °F 39.0 °F 93% 29.88 in 2.5 mi WNW 16.1 mph 26.5 mph 0.01 in Rain Light Rain
10:44 PM 41.0 °F 32.8 °F 39.0 °F 93% 29.88 in 3.0 mi NW 16.1 mph - 0.02 in Rain Light Rain
10:54 PM 41.0 °F 32.2 °F 39.0 °F 93% 29.91 in 3.0 mi WNW 18.4 mph 25.3 mph 0.02 in Rain Light Rain
11:17 PM 41.0 °F 33.5 °F 39.0 °F 93% 29.89 in 8.0 mi NW 13.8 mph 23.0 mph 0.00 in Rain Light Rain
11:54 PM 41.0 °F 33.1 °F 37.9 °F 89% 29.94 in 10.0 mi NW 15.0 mph - 0.00 in   Overcast